Location: Celina Division
(33.3022°N, 96.7580°W)
Time: 16:11:14
(UTC+00:00)

Daily predictions for brighter satellites

Satellite Brightness Start Highest point End
(mag) Time Altitude Azimuth Time Altitude Azimuth Time Altitude Azimuth
SJ 16-02 1.7 12:01:37 10° SW 12:05:42 39° WNW 12:09:49 10° N
OAO 2 Rocket 3.5 12:04:47 15° WSW 12:09:06 77° SSE 12:14:14 10° ENE
CZ-4B R/B 3.3 12:06:55 10° NNE 12:10:27 57° E 12:14:05 10° S
H-2A R/B 4.0 12:13:52 21° W 12:13:52 21° W 12:16:06 10° WSW
Meteor 2-15 Rocket 4.4 12:09:06 10° N 12:15:10 78° W 12:21:13 10° S
DELTA 2 R/B (1) 4.1 12:12:08 19° WNW 12:15:53 47° N 12:21:13 10° E
Cosmos 1515 Rocket 3.6 12:12:17 10° NNW 12:16:32 54° W 12:20:44 10° S
Cosmos 2228 Rocket 4.0 12:17:44 10° N 12:22:10 53° E 12:26:36 10° SSE
Meteor 1-27 Rocket 3.7 12:16:49 10° NNW 12:22:32 73° W 12:28:19 10° S
Meteor 1-31 Rocket 3.9 12:21:29 10° NNW 12:24:37 23° WNW 12:27:46 10° SW
Cosmos 1500 Rocket 4.0 12:24:25 10° SSW 12:28:37 41° W 12:32:51 10° N
Sich 1 3.1 12:24:50 10° S 12:29:06 82° E 12:33:23 10° N
SL-4 R/B 2.7 12:28:17 14° W 12:30:36 27° NW 12:33:44 10° NNE
SL-27 R/B 3.2 12:27:43 12° NW 12:30:38 33° W 12:33:47 10° SSW
SKYMED 2 4.4 12:27:40 10° SSW 12:31:27 29° W 12:35:15 10° NW
CZ-4B R/B 4.2 12:30:26 10° ESE 12:32:47 18° ENE 12:35:05 10° NNE
Nadezhda 4 Rocket 4.4 12:29:23 10° SW 12:35:03 38° W 12:40:48 10° NNW
Cosmos 2297 Rocket 4.0 12:30:21 10° N 12:35:11 28° ENE 12:39:59 10° ESE
NOAA 12 4.0 12:30:36 10° N 12:35:51 80° WNW 12:41:05 10° SSW
Cosmos 1939 Rocket 2.7 12:33:15 10° N 12:37:08 89° NW 12:40:59 10° SSW
CZ-2C R/B 3.5 12:34:01 10° SSW 12:38:48 31° W 12:43:33 10° NW
Meteor 1-25 Rocket 4.2 12:33:41 10° SSW 12:39:14 62° W 12:44:46 10° N
H-2A R/B 2.6 12:36:14 10° SSE 12:40:25 60° ENE 12:44:44 10° N
Cosmos 1805 Rocket 3.7 12:36:55 10° SSW 12:41:11 52° W 12:45:27 10° N
Cosmos 1538 Rocket 4.0 12:36:08 10° NNW 12:41:21 89° WSW 12:46:31 10° SSE
ADEOS 4.1 12:37:40 10° N 12:42:24 36° WNW 12:47:07 10° SW
H-2A R/B (2) 4.1 12:37:45 10° WSW 12:42:53 66° SSE 20:18:20 10° SE
Okean 1 4.0 12:40:03 10° N 12:43:56 58° E 12:47:50 10° SSE
Cosmos 1602 4.3 12:45:08 10° SSW 12:48:36 34° W 12:52:07 10° NNW
Cosmos 1092 Rocket 4.3 12:49:12 10° SSW 12:55:10 47° W 13:01:14 10° N
Lacrosse 5 rocket 3.1 23:46:23 10° N 23:48:39 14° NE 23:50:58 10° ENE
GPS 2-04 Rocket1 3.3 23:45:01 10° W 23:49:04 61° SSW 23:53:07 10° ESE
Meteor 2-6 Rocket 4.4 23:43:35 10° S 23:49:09 53° E 23:54:36 10° NNE
NOAA 12 4.3 23:46:13 10° S 23:51:31 79° WSW 23:56:51 10° NNW
Cosmos 1812 2.9 23:49:35 10° S 23:53:24 79° W 23:57:15 10° N
Cosmos 1328 Rocket 3.6 23:51:15 10° S 23:55:36 60° E 23:59:58 10° NNE
